timestamp,surface_pressure_avg,surface_temp_avg,battery_voltage,lat,long
2021-12-16 00:09:01+00:00,314.683,5.69,12.73,47.84626,-54.09684
2021-12-16 00:19:00+00:00,305.4064,5.59,12.65,47.84626,-54.09684
2021-12-16 00:29:00+00:00,297.0031,5.5,12.65,47.84626,-54.09684
2021-12-16 00:39:00+00:00,288.558,5.58,12.65,47.84626,-54.09684
2021-12-16 00:49:00+00:00,280.423,5.85,12.65,47.84626,-54.09684
2021-12-16 00:59:00+00:00,273.9514,5.9,12.65,47.84626,-54.09684
2021-12-16 01:09:00+00:00,269.2014,5.6,12.65,47.84626,-54.09684
2021-12-16 01:19:00+00:00,263.8531,5.6,12.65,47.84626,-54.09684
2021-12-16 01:29:00+00:00,258.803,5.61,12.65,47.84626,-54.09684
2021-12-16 01:39:00+00:00,252.2181,5.67,12.65,47.84626,-54.09684
2021-12-16 01:49:00+00:00,247.4865,5.6,12.65,47.84626,-54.09684
2021-12-16 01:59:00+00:00,246.4681,5.59,12.65,47.84626,-54.09684
2021-12-16 02:09:00+00:00,246.2214,5.5,12.65,47.84626,-54.09684
2021-12-16 02:19:00+00:00,245.2864,5.5,12.65,47.84626,-54.09684
2021-12-16 02:29:00+00:00,242.4614,5.49,12.65,47.84626,-54.09684
2021-12-16 02:39:00+00:00,240.8664,5.46,12.65,47.84626,-54.09684
2021-12-16 02:49:00+00:00,241.6181,5.42,12.65,47.84626,-54.09684
2021-12-16 02:59:00+00:00,243.5247,5.4,12.65,47.84626,-54.09684
2021-12-16 03:09:00+00:00,241.5081,5.37,12.65,47.84626,-54.09684
2021-12-16 03:19:00+00:00,238.2281,5.37,12.65,47.84626,-54.09684
2021-12-16 03:29:00+00:00,240.8764,5.4,12.65,47.84626,-54.09684
2021-12-16 03:39:00+00:00,243.6414,5.4,12.65,47.84626,-54.09684
2021-12-16 03:49:00+00:00,244.3231,5.3,12.65,47.84626,-54.09684
2021-12-16 03:59:00+00:00,242.8097,5.3,12.65,47.84626,-54.09684
2021-12-16 04:09:00+00:00,244.3348,5.3,12.65,47.84626,-54.09684
2021-12-16 04:19:01+00:00,246.1414,5.3,12.65,47.84626,-54.09684
2021-12-16 04:29:01+00:00,246.9664,5.3,12.65,47.84626,-54.09684
2021-12-16 04:39:01+00:00,248.6464,5.31,12.65,47.84626,-54.09684
2021-12-16 04:49:01+00:00,251.8897,5.3,12.65,47.84626,-54.09684
2021-12-16 04:59:01+00:00,255.9264,5.3,12.65,47.84626,-54.09684
2021-12-16 05:09:01+00:00,260.088,5.3,12.65,47.84626,-54.09684
2021-12-16 05:19:01+00:00,262.9064,5.3,12.65,47.84626,-54.09684
2021-12-16 05:29:01+00:00,265.3314,5.3,12.65,47.84626,-54.09684
2021-12-16 05:39:01+00:00,269.8214,5.3,12.65,47.84626,-54.09684
2021-12-16 05:49:01+00:00,276.3364,5.21,12.65,47.84626,-54.09684
2021-12-16 05:59:01+00:00,280.7147,5.4,12.65,47.84626,-54.09684
2021-12-16 06:09:01+00:00,285.0831,5.4,12.65,47.84626,-54.09684
2021-12-16 06:19:01+00:00,291.7897,5.2,12.57,47.84626,-54.09684
2021-12-16 06:29:01+00:00,296.2647,5.1,12.57,47.84626,-54.09684
2021-12-16 06:39:01+00:00,297.7563,5.02,12.57,47.84626,-54.09684
2021-12-16 06:49:01+00:00,300.528,5.07,12.57,47.84626,-54.09684
2021-12-16 06:59:01+00:00,305.1997,5.1,12.57,47.84626,-54.09684
2021-12-16 07:09:01+00:00,308.308,5.17,12.57,47.84626,-54.09684
2021-12-16 07:19:00+00:00,314.5264,5.28,12.57,47.84626,-54.09684
2021-12-16 07:29:00+00:00,321.5563,5.49,12.57,47.84626,-54.09684
2021-12-16 07:39:00+00:00,325.7147,5.53,12.57,47.84626,-54.09684
2021-12-16 07:49:00+00:00,331.6397,5.53,12.57,47.84626,-54.09684
2021-12-16 07:59:00+00:00,344.0479,5.5,12.57,47.84626,-54.09684
2021-12-16 08:09:00+00:00,350.1562,5.4,12.57,47.84626,-54.09684
2021-12-16 08:19:00+00:00,351.30300000000005,5.19,12.57,47.84626,-54.09684
2021-12-16 08:29:00+00:00,358.3796,5.17,12.57,47.84626,-54.09684
2021-12-16 08:39:00+00:00,364.51800000000003,5.2,12.57,47.84626,-54.09684
2021-12-16 08:49:00+00:00,361.9913,5.26,12.57,47.84626,-54.09684
2021-12-16 08:59:00+00:00,362.7163,5.34,12.57,47.84626,-54.09684
2021-12-16 09:09:00+00:00,370.6696,5.3,12.57,47.84626,-54.09684
2021-12-16 09:19:00+00:00,371.8913,5.3,12.57,47.84626,-54.09684
2021-12-16 09:29:00+00:00,368.2813,5.3,12.57,47.84626,-54.09684
2021-12-16 09:39:00+00:00,370.658,5.2,12.57,47.84626,-54.09684
2021-12-16 09:49:00+00:00,370.0712,5.18,12.57,47.84626,-54.09684
2021-12-16 09:59:00+00:00,367.8929,5.16,12.57,47.84626,-54.09684
2021-12-16 10:09:00+00:00,367.3097,5.15,12.57,47.84626,-54.09684
2021-12-16 10:19:00+00:00,366.44300000000004,5.1,12.57,47.84626,-54.09684
2021-12-16 10:29:00+00:00,366.2946,5.1,12.57,47.84626,-54.09684
2021-12-16 10:39:00+00:00,363.8646,5.1,12.57,47.84626,-54.09684
2021-12-16 10:49:00+00:00,361.8529,5.1,12.57,47.84626,-54.09684
2021-12-16 10:59:00+00:00,357.6329,5.1,12.57,47.84626,-54.09684
2021-12-16 11:09:00+00:00,354.0613,5.07,12.57,47.84626,-54.09684
2021-12-16 11:19:01+00:00,352.2463,5.09,12.57,47.84626,-54.09684
2021-12-16 11:29:01+00:00,348.2213,5.08,12.57,47.84626,-54.09684
2021-12-16 11:39:01+00:00,341.6163,5.0,12.57,47.84626,-54.09684
2021-12-16 11:49:01+00:00,335.5996,5.0,12.57,47.84626,-54.09684
2021-12-16 11:59:01+00:00,330.7712,5.0,12.57,47.84626,-54.09684
2021-12-16 12:09:01+00:00,324.653,5.0,12.57,47.84626,-54.09684
2021-12-16 12:19:00+00:00,318.9996,5.0,12.65,47.84626,-54.09684
2021-12-16 12:29:00+00:00,316.2896,4.95,12.65,47.84626,-54.09684
2021-12-16 12:39:00+00:00,309.513,4.9,12.65,47.84626,-54.09684
2021-12-16 12:49:00+00:00,300.143,4.9,12.65,47.84626,-54.09684
2021-12-16 12:59:00+00:00,291.7964,4.9,12.65,47.84626,-54.09684
2021-12-16 13:09:00+00:00,283.5148,4.9,12.65,47.84626,-54.09684
2021-12-16 13:19:00+00:00,277.1047,4.9,13.37,47.84626,-54.09684
2021-12-16 13:29:00+00:00,270.1047,4.9,13.37,47.84626,-54.09684
2021-12-16 13:39:00+00:00,262.6581,5.0,13.37,47.84626,-54.09684
2021-12-16 13:49:00+00:00,255.0964,5.06,13.37,47.84626,-54.09684
2021-12-16 13:59:00+00:00,250.0964,5.1,13.37,47.84626,-54.09684
2021-12-16 14:09:00+00:00,245.8581,5.07,13.37,47.84626,-54.09684
2021-12-16 14:19:01+00:00,242.7981,4.9,14.72,47.84626,-54.09684
2021-12-16 14:29:01+00:00,238.1165,4.9,14.72,47.84626,-54.09684
2021-12-16 14:39:01+00:00,233.3114,4.93,14.72,47.84626,-54.09684
2021-12-16 14:49:01+00:00,230.3498,4.98,14.72,47.84626,-54.09684
2021-12-16 14:59:01+00:00,226.8264,5.0,14.72,47.84626,-54.09684
2021-12-16 15:09:01+00:00,219.3464,5.07,14.72,47.84626,-54.09684
2021-12-16 15:19:00+00:00,214.4048,5.08,14.64,47.84626,-54.09684
2021-12-16 15:29:00+00:00,213.4547,5.1,14.64,47.84626,-54.09684
2021-12-16 15:39:00+00:00,209.3864,5.1,14.64,47.84626,-54.09684
2021-12-16 15:49:00+00:00,203.7281,5.0,14.64,47.84626,-54.09684
2021-12-16 15:59:00+00:00,202.2698,5.0,14.64,47.84626,-54.09684
2021-12-16 16:09:00+00:00,203.2664,4.99,14.64,47.84626,-54.09684
2021-12-16 16:19:01+00:00,201.9831,5.0,14.64,47.84626,-54.09684
2021-12-16 16:29:01+00:00,199.5865,4.96,14.64,47.84626,-54.09684
2021-12-16 16:39:01+00:00,199.3981,4.94,14.64,47.84626,-54.09684
2021-12-16 16:49:01+00:00,199.6314,4.95,14.64,47.84626,-54.09684
2021-12-16 16:59:01+00:00,198.5814,4.9,14.64,47.84626,-54.09684
2021-12-16 17:09:01+00:00,198.6965,4.9,14.64,47.84626,-54.09684
2021-12-16 17:19:00+00:00,200.7515,4.9,14.48,47.84626,-54.09684
2021-12-16 17:29:00+00:00,202.4298,4.9,14.48,47.84626,-54.09684
2021-12-16 17:39:00+00:00,205.0964,4.9,14.48,47.84626,-54.09684
2021-12-16 17:49:00+00:00,208.5248,4.9,14.48,47.84626,-54.09684
2021-12-16 17:59:00+00:00,211.9065,4.9,14.48,47.84626,-54.09684
2021-12-16 18:09:00+00:00,215.8048,4.9,14.48,47.84626,-54.09684
2021-12-16 18:19:01+00:00,218.6781,4.9,14.64,47.84626,-54.09684
2021-12-16 18:29:01+00:00,222.1997,4.9,14.64,47.84626,-54.09684
2021-12-16 18:39:01+00:00,226.9398,4.9,14.64,47.84626,-54.09684
2021-12-16 18:49:01+00:00,231.6481,4.9,14.64,47.84626,-54.09684
2021-12-16 18:59:01+00:00,234.0181,4.9,14.64,47.84626,-54.09684
2021-12-16 19:09:01+00:00,239.5848,4.9,14.64,47.84626,-54.09684
2021-12-16 19:19:00+00:00,248.4664,4.9,14.0,47.84626,-54.09684
2021-12-16 19:29:00+00:00,251.7381,4.9,14.0,47.84626,-54.09684
2021-12-16 19:39:00+00:00,253.5081,4.9,14.0,47.84626,-54.09684
2021-12-16 19:49:00+00:00,262.5214,4.92,14.0,47.84626,-54.09684
2021-12-16 19:59:00+00:00,273.9614,4.97,14.0,47.84626,-54.09684
2021-12-16 20:09:00+00:00,277.1898,4.95,14.0,47.84626,-54.09684
2021-12-16 20:19:00+00:00,280.483,4.99,13.53,47.84626,-54.09684
2021-12-16 20:29:00+00:00,290.0764,4.99,13.53,47.84626,-54.09684
2021-12-16 20:39:00+00:00,296.313,4.97,13.53,47.84626,-54.09684
2021-12-16 20:49:00+00:00,297.7214,4.98,13.53,47.84626,-54.09684
2021-12-16 20:59:00+00:00,302.4363,4.99,13.53,47.84626,-54.09684
2021-12-16 21:09:00+00:00,308.6097,4.9,13.53,47.84626,-54.09684
2021-12-16 21:19:00+00:00,311.5563,4.6,13.13,47.84626,-54.09684
2021-12-16 21:29:00+00:00,311.833,4.6,13.13,47.84626,-54.09684
2021-12-16 21:39:00+00:00,318.1113,4.6,13.13,47.84626,-54.09684
2021-12-16 21:49:00+00:00,323.383,4.6,13.13,47.84626,-54.09684
2021-12-16 21:59:00+00:00,324.8746,4.6,13.13,47.84626,-54.09684
2021-12-16 22:09:00+00:00,324.3663,4.5,13.13,47.84626,-54.09684
2021-12-16 22:19:00+00:00,327.2363,4.56,12.81,47.84626,-54.09684
2021-12-16 22:29:00+00:00,329.6379,4.7,12.81,47.84626,-54.09684
2021-12-16 22:39:00+00:00,326.8279,4.85,12.81,47.84626,-54.09684
2021-12-16 22:49:00+00:00,320.7913,4.75,12.81,47.84626,-54.09684
2021-12-16 22:59:00+00:00,317.798,4.87,12.81,47.84626,-54.09684
2021-12-16 23:09:00+00:00,314.2531,5.05,12.81,47.84626,-54.09684
2021-12-16 23:19:00+00:00,312.043,5.09,12.65,47.84626,-54.09684
2021-12-16 23:29:00+00:00,305.1447,5.0,12.65,47.84626,-54.09684
2021-12-16 23:39:00+00:00,303.4313,5.0,12.65,47.84626,-54.09684
2021-12-16 23:49:00+00:00,303.5146,5.0,12.65,47.84626,-54.09684
2021-12-16 23:59:00+00:00,299.7714,5.0,12.65,47.84626,-54.09684
